User: anonymous   Login
Location: Houston
(29.7630°N, 95.3630°W)
Time: 15:14:22
(UTC-06:00)
Language:

ISS - Orbit

View from above orbital plane
View from above orbital plane
View from above satellite
View from above satellite

Ground track
Ground track

The orbit data is extracted from the following two-line orbital elements,

1 25544U 98067A   14326.59294304  .00027037  00000-0  45709-3 0  4444
2 25544 051.6472 034.2526 0006963 054.9364 049.1087 15.51368718915902
Epoch (UTC): 22 November 2014 14:13:50
Eccentricity: 0.0006963
inclination: 51.6472°
perigee height: 408 km
apogee height: 417 km
right ascension of ascending node: 34.2526°
argument of perigee: 54.9364°
revolutions per day: 15.51368718
mean anomaly at epoch: 49.1087°
orbit number at epoch: 91590

The dashed part of the orbit path shows where the satellite is in the earth's shadow,  

DLR